Location: Newark
(45.2500°N, 7.5833°E)
Time: 04:23:28
(UTC+00:00)

Tiros 1 despin weight - Pass Details

Date: 30 January 2020
Orbit: 594 x 642 km, 48.2° (Epoch: 19 February)

Event Time Altitude Azimuth Distance (km) Brightness Sun altitude
Rises 16:05:43 0° 278° (W) 2,911 ? 3.5°
Reaches altitude 10° 16:10:01 10° 240° (WSW) 2,010 ? 2.8°
Maximum altitude 16:10:59 11° 228° (SW) 1,972 ? 2.6°
Drops below altitude 10° 16:11:58 10° 216° (SW) 2,012 ? 2.5°
Sets 16:16:18 0° 178° (S) 2,923 ? 1.8°
